Regional Weather Roundup
Issued by NWS

Home | Current Version | Previous Version | Text Only | Print | Product List | Glossary Off
Versions: 1 2 3 4 5 6 7 8 9 10 11 12 13 14 15 16 17 18 19 20 21 22 23 24 25 26 27 28 29 30 31 32 33 34 35 36 37 38 39 40 41 42 43 44 45 46 47 48 49 50

000
ASUS43 KIND 250109
RWRIN

WEATHER ROUNDUP FOR INDIANA
NATIONAL WEATHER SERVICE INDIANAPOLIS IN
900 PM EDT THU APR 24 2014

NOTE: "FAIR" INDICATES FEW OR NO CLOUDS BELOW 12,000 FEET WITH NO
SIGNIFICANT WEATHER AND/OR OBSTRUCTIONS TO VISIBILITY.

* - STATION DOES NOT REPORT WEATHER SUCH AS PRECIPITATION OR FOG.

+ - STATION NOT QUALITY CONTROLLED BY THE NATIONAL WEATHER SERVICE.
    USE DATA WITH CAUTION...ESPECIALLY DEWPOINT AND RELATIVE
    HUMIDITY OBSERVATIONS.

INZ001>003-010>013-019-020-250200-
NORTHWEST INDIANA

CITY           SKY/WX    TMP DP  RH WIND       PRES   REMARKS
GARY /AIRPORT/ CLOUDY    61  25  25 SE174     29.73F
LA PORTE +     CLOUDY    56  21  25 SE12G23   29.76S
MICHIGAN CITY+ CLOUDY    57  21  24 SE10G18   29.75R
MONTICELLO +   CLOUDY    60  31  33 SE10G20   29.72F
RENSSELAER +   CLOUDY    59  28  31 E14G22    29.73R
VALPARAISO     CLOUDY    56  23  27 SE14G22   29.75R

$$

LMZ046-743>745-250200-
SOUTHERN LAKE MICHIGAN

STATION/POSITION TIME  TEMP WIND        PRES
                       AIR  DIR/SP/G
                 (UTC) (F)  (DEG/KT/KT) (MB)
MICHIGAN CITY    0100   59  110/ 17/ 25   N/A

$$

INZ004-005-014>016-021>024-250200-
NORTH CENTRAL INDIANA

CITY           SKY/WX    TMP DP  RH WIND       PRES   REMARKS
ELKHART        CLOUDY    55  23  28 SE10G21   29.81S
GOSHEN         CLOUDY    56  25  30 SE16G23   29.81F
LOGANSPORT +   CLOUDY    55  28  35 E14       29.77F
PERU/GRISSOM   CLOUDY    58  28  32 E15       29.77F
ROCHESTER +    CLOUDY    59  23  25 SE15      29.78F
SOUTH BEND     CLOUDY    57  23  26 SE15      29.79F
WARSAW +       CLOUDY    54  27  35 SE10G16   29.81S

$$

INZ006>009-017-018-025>027-250200-
NORTHEAST INDIANA

CITY           SKY/WX    TMP DP  RH WIND       PRES   REMARKS
ANGOLA *+      CLEAR     48  30  49 SE15      29.86F
AUBURN +       CLOUDY    52  28  40 E10G18    29.86F
FORT WAYNE     CLOUDY    54  25  32 E12       29.85S

$$

INZ028-029-035-036-043>045-051>053-250200-
WEST CENTRAL INDIANA

CITY           SKY/WX    TMP DP  RH WIND       PRES   REMARKS
GREENCASTLE +  MOCLDY    63  39  42 SE10      29.74F
LAFAYETTE      CLOUDY    62  35  36 SE12      29.72F
TERRE HAUTE    MOCLDY    67  38  34 SE9       29.70F

$$

INZ030>032-037>040-046>048-054>057-064-065-250200-
CENTRAL INDIANA

CITY           SKY/WX    TMP DP  RH WIND       PRES   REMARKS
CP ATTERBURY + CLOUDY    63  39  42 E8        29.77F
GREENWOOD *+   CLOUDY    63  39  42 E8        29.78
INDIANAPOLIS   CLOUDY    62  37  39 SE14      29.75F
-EAGLE CREEK   CLOUDY    63  36  36 SE10      29.75F
KOKOMO *+        N/A    N/A N/A N/A MISG        N/A
MARION +       CLOUDY    57  23  26 SE12      29.81F
MT COMFORT *+  MOCLDY    61  36  39 SE10      29.79F
SHELBYVILLE    MOCLDY    63  37  38 E12       29.78F
ZIONSVILLE +   CLOUDY    63  32  30 SE10      29.77F

$$

INZ033-034-041-042-049-050-058-059-250200-
EAST CENTRAL INDIANA

CITY           SKY/WX    TMP DP  RH WIND       PRES   REMARKS
MUNCIE         CLOUDY    58  26  29 SE9       29.82S

$$

INZ060-061-067>069-081>083-085>088-250200-
SOUTHWEST INDIANA

CITY           SKY/WX    TMP DP  RH WIND       PRES   REMARKS
EVANSVILLE     CLOUDY    72  41  32 SE6       29.71F
HUNTINGBURG *+ MOCLDY    66  39  37 SE10      29.74S
WASHINGTON +   MOCLDY    65  44  45 SE7       29.70F

$$

INZ062-063-066-070>080-084-089>092-250200-
SOUTH CENTRAL AND SOUTHEAST INDIANA

CITY           SKY/WX    TMP DP  RH WIND       PRES   REMARKS
BLOOMINGTON    MOCLDY    66  37  34 SE6       29.75S
NORTH VERNON + MOCLDY    64  34  32 E7        29.78
SEYMOUR +      CLOUDY    61  23  23 E10       29.77

$$




USA.gov is the U.S. government's official web portal to all federal, state and local government web resources and services.